Brunswick, NC

9:29 AM EST on February 19, 2017 (GMT -0500)
Columbus County Municipal

Weather History for KCPC - February, 2013

Change the Weather History Date:

Thursday, February 21, 2013

  Actual Average (KCRE) Record (KCRE)
Temperature  
Mean Temperature 46 °F -  
Max Temperature 58 °F 55 °F 76 °F (1953)
Min Temperature 33 °F 38 °F 24 °F (2015)
Degree Days  
Heating Degree Days 20    
Moisture  
Dew Point 24 °F    
Average Humidity 49    
Maximum Humidity 92    
Minimum Humidity 21    
Precipitation  
Precipitation 0.00 in - - ()
Sea Level Pressure  
Sea Level Pressure 30.16 in    
Wind  
Wind Speed 2 mph (NNE)    
Max Wind Speed 9 mph    
Max Gust Speed 16 mph    
Visibility 10 miles    
Events      
Averages and records for this station are not official NWS values.
T = Trace of Precipitation, MM = Missing Value Source: NWS Daily Summary

Daily Weather History Graph

Daily Weather History Graph

Search for Another Location

Airport or City:

Trip Planner

Search our weather history database for the weather conditions in past years. The results will help you decide how hot, cold, wet, or windy it might be!

Date:

Astronomy

Feb. 21, 2013 Rise Set
Actual Time 6:53 AM EST 6:04 PM EST
Civil Twilight 6:27 AM EST 6:29 PM EST
Nautical Twilight 5:58 AM EST 6:58 PM EST
Astronomical Twilight 5:29 AM EST 7:28 PM EST
Moon 2:24 PM EST (2/21) 3:49 AM EST (2/21)
Length of Visible Light 12h 02m
Length of Day
11h 11m
Waxing Gibbous, 83% of the Moon is Illuminated
Feb 21
Waxing Gibbous
Feb 25
Full
Mar 4
Last Quarter
Mar 11
New
Mar 19
First Quarter

Hourly Weather History & Observations

Time (EST) Temp. Windchill Dew Point Humidity Pressure Visibility Wind Dir Wind Speed Gust Speed Precip Events Conditions
12:15 AM 34.3 °F - 31.3 °F 89% 30.10 in 10.0 mi Calm Calm - N/A   Clear
12:35 AM 35.1 °F - 31.5 °F 87% 30.10 in 10.0 mi Calm Calm - N/A   Clear
12:55 AM 33.8 °F - 31.5 °F 91% 30.10 in 10.0 mi Calm Calm - N/A   Clear
1:15 AM 33.6 °F - 31.5 °F 92% 30.11 in 10.0 mi Calm Calm - N/A   Clear
1:35 AM 36.5 °F 32.7 °F 32.4 °F 85% 30.12 in 10.0 mi NW 4.6 mph - N/A   Clear
1:55 AM 34.7 °F - 32.0 °F 90% 30.13 in 10.0 mi Calm Calm - N/A   Clear
2:15 AM 35.6 °F 32.8 °F 32.2 °F 87% 30.12 in 10.0 mi North 3.5 mph - N/A   Clear
2:35 AM 37.6 °F 35.1 °F 28.0 °F 68% 30.13 in 10.0 mi North 3.5 mph - N/A   Clear
2:55 AM 38.1 °F 35.7 °F 24.1 °F 57% 30.13 in 10.0 mi NNE 3.5 mph - N/A   Clear
3:15 AM 37.8 °F 35.3 °F 22.1 °F 53% 30.12 in 10.0 mi North 3.5 mph - N/A   Clear
3:35 AM 37.0 °F - 22.1 °F 55% 30.13 in 10.0 mi Calm Calm - N/A   Clear
3:55 AM 37.0 °F 34.5 °F 21.0 °F 52% 30.13 in 10.0 mi NNE 3.5 mph - N/A   Clear
4:15 AM 36.7 °F 34.1 °F 20.5 °F 52% 30.14 in 10.0 mi NNE 3.5 mph - N/A   Clear
4:35 AM 36.0 °F - 21.4 °F 55% 30.15 in 10.0 mi Calm Calm - N/A   Clear
4:55 AM 35.6 °F - 21.0 °F 55% 30.15 in 10.0 mi Calm Calm - N/A   Clear
5:15 AM 35.1 °F - 20.7 °F 56% 30.16 in 10.0 mi Calm Calm - N/A   Clear
5:35 AM 34.7 °F 30.6 °F 20.5 °F 56% 30.16 in 10.0 mi North 4.6 mph - N/A   Clear
5:55 AM 34.9 °F 32.0 °F 19.9 °F 55% 30.16 in 10.0 mi NNE 3.5 mph - N/A   Clear
6:15 AM 35.1 °F 32.2 °F 19.2 °F 53% 30.17 in 10.0 mi NNE 3.5 mph - N/A   Clear
6:55 AM 34.5 °F 31.6 °F 19.2 °F 54% 30.18 in 10.0 mi NNE 3.5 mph - N/A   Clear
7:15 AM 34.7 °F 29.6 °F 19.0 °F 53% 30.19 in 10.0 mi NNE 5.8 mph - N/A   Clear
7:35 AM 35.8 °F 31.9 °F 18.9 °F 50% 30.19 in 10.0 mi NNE 4.6 mph - N/A   Clear
7:55 AM 36.7 °F 32.0 °F 18.5 °F 48% 30.20 in 10.0 mi NE 5.8 mph - N/A   Clear
8:15 AM 37.6 °F 31.0 °F 18.0 °F 45% 30.20 in 10.0 mi NE 9.2 mph - N/A   Clear
8:35 AM 39.0 °F 34.0 °F 17.8 °F 42% 30.20 in 10.0 mi NNE 6.9 mph - N/A   Clear
8:55 AM 40.3 °F 34.9 °F 16.7 °F 39% 30.21 in 10.0 mi NE 8.1 mph - N/A   Clear
9:15 AM 41.2 °F 35.5 °F 15.6 °F 36% 30.22 in 10.0 mi NE 9.2 mph 16.1 mph N/A   Clear
9:35 AM 42.4 °F 38.1 °F 16.5 °F 35% 30.22 in 10.0 mi NNE 6.9 mph - N/A   Clear
9:55 AM 43.7 °F 38.6 °F 16.5 °F 34% 30.22 in 10.0 mi NNE 9.2 mph - N/A   Clear
10:15 AM 43.9 °F 39.9 °F 16.3 °F 33% 30.21 in 10.0 mi NE 6.9 mph - N/A   Clear
10:35 AM 44.6 °F 42.2 °F 15.4 °F 31% 30.21 in 10.0 mi NNE 4.6 mph - N/A   Clear
10:55 AM 45.9 °F 44.6 °F 15.8 °F 30% 30.21 in 10.0 mi North 3.5 mph - N/A   Clear
11:15 AM 47.1 °F - 16.5 °F 29% 30.21 in 10.0 mi ENE 3.5 mph - N/A   Clear
11:35 AM 48.2 °F - 16.2 °F 28% 30.20 in 10.0 mi East 4.6 mph - N/A   Clear
11:55 AM 50.0 °F - 16.5 °F 26% 30.19 in 10.0 mi NNW 4.6 mph - N/A   Clear
12:15 PM 50.2 °F - 15.6 °F 25% 30.19 in 10.0 mi Calm Calm - N/A   Clear
12:35 PM 51.4 °F - 16.5 °F 25% 30.18 in 10.0 mi WNW 3.5 mph - N/A   Clear
12:55 PM 53.1 °F - 17.1 °F 24% 30.17 in 10.0 mi NNW 4.6 mph - N/A   Clear
1:15 PM 53.4 °F - 18.0 °F 25% 30.16 in 10.0 mi NNW 3.5 mph - N/A   Clear
1:35 PM 54.1 °F - 17.6 °F 24% 30.15 in 10.0 mi Calm Calm - N/A   Clear
1:55 PM 54.9 °F - 19.4 °F 25% 30.14 in 10.0 mi NNE 3.5 mph - N/A   Clear
2:15 PM 55.9 °F - 19.0 °F 24% 30.14 in 10.0 mi West 5.8 mph - N/A   Clear
2:35 PM 56.1 °F - 19.4 °F 24% 30.12 in 10.0 mi Calm Calm - N/A   Clear
2:55 PM 57.9 °F - 20.1 °F 23% 30.11 in 10.0 mi West 5.8 mph - N/A   Clear
3:15 PM 57.4 °F - 17.8 °F 21% 30.10 in 10.0 mi Calm Calm - N/A   Clear
3:35 PM 57.4 °F - 17.4 °F 21% 30.10 in 10.0 mi SW 4.6 mph - N/A   Clear
3:55 PM 58.1 °F - 18.5 °F 21% 30.10 in 10.0 mi WSW 3.5 mph - N/A   Clear
4:15 PM 58.3 °F - 19.4 °F 22% 30.11 in 10.0 mi Calm Calm - N/A   Clear
4:35 PM 58.1 °F - 19.8 °F 23% 30.12 in 10.0 mi Calm Calm - N/A   Clear
4:55 PM 57.6 °F - 19.9 °F 23% 30.12 in 10.0 mi Calm Calm - N/A   Clear
5:15 PM 57.0 °F - 20.1 °F 24% 30.12 in 10.0 mi Calm Calm - N/A   Clear
5:35 PM 54.7 °F - 23.9 °F 30% 30.13 in 10.0 mi Calm Calm - N/A   Clear
5:55 PM 52.7 °F - 25.3 °F 35% 30.13 in 10.0 mi Calm Calm - N/A   Clear
6:15 PM 51.3 °F - 26.2 °F 38% 30.14 in 10.0 mi Calm Calm - N/A   Clear
6:35 PM 50.0 °F - 30.6 °F 47% 30.14 in 10.0 mi Calm Calm - N/A   Clear
6:55 PM 47.7 °F - 32.5 °F 56% 30.15 in 10.0 mi Calm Calm - N/A   Clear
7:15 PM 47.3 °F - 31.5 °F 54% 30.16 in 10.0 mi Calm Calm - N/A   Clear
7:35 PM 45.7 °F - 31.8 °F 58% 30.17 in 10.0 mi Calm Calm - N/A   Clear
7:55 PM 44.8 °F - 32.9 °F 63% 30.17 in 10.0 mi Calm Calm - N/A   Clear
8:15 PM 44.1 °F - 33.4 °F 66% 30.17 in 10.0 mi Calm Calm - N/A   Clear
8:35 PM 44.4 °F 42.9 °F 32.5 °F 63% 30.18 in 10.0 mi SE 3.5 mph - N/A   Clear
8:55 PM 46.2 °F - 29.1 °F 51% 30.18 in 10.0 mi Calm Calm - N/A   Clear
9:15 PM 44.1 °F - 31.1 °F 60% 30.17 in 10.0 mi Calm Calm - N/A   Clear
9:35 PM 43.9 °F - 31.1 °F 61% 30.18 in 7.0 mi Calm Calm - N/A   Clear
9:55 PM 42.8 °F - 32.2 °F 66% 30.19 in 10.0 mi Calm Calm - N/A   Clear
10:15 PM 41.7 °F - 32.5 °F 70% 30.19 in 7.0 mi Calm Calm - N/A   Clear
10:35 PM 39.7 °F - 32.5 °F 75% 30.19 in 10.0 mi Calm Calm - N/A   Clear
10:55 PM 43.7 °F - 33.4 °F 67% 30.21 in 7.0 mi Calm Calm - N/A   Clear
11:15 PM 43.0 °F - 34.5 °F 72% 30.21 in 10.0 mi Calm Calm - N/A   Clear
11:35 PM 44.4 °F - 34.9 °F 69% 30.23 in 10.0 mi Calm Calm - N/A   Clear
11:55 PM 43.9 °F 38.8 °F 34.7 °F 70% 30.21 in 10.0 mi NE 9.2 mph - N/A   Clear